DW5444 Weather Reports


time (UTC)temp
C
wind
direction
speed
KPH
gust
KPH
rain 1hr
cm
rain 24hr
cm
rain mn
cm
humidity
%
barometer
mb
20260506091558 13 132 4.8 9.7 0.00 0.00 0.00 58 1011.9
20260506090056 13 130 8.0 9.7 0.00 0.00 0.00 58 1011.8
20260506084556 13 109 6.4 9.7 0.00 0.00 0.00 59 1011.8
20260506083055 13 105 6.4 9.7 0.00 0.00 0.00 59 1011.8
20260506081555 13 156 6.4 11.3 0.00 0.00 0.00 61 1011.8
20260506073053 12 137 0.0 4.8 0.00 0.00 0.00 64 1011.7
20260506071550 13 123 0.0 3.2 0.00 0.00 0.00 59 1011.7
20260506061537 13 82 1.6 8.0 0.00 0.00 0.00 59 1011.0
20260506044537 12 58 3.2 4.8 0.00 0.00 0.00 66 1010.7
20260506043029 12 69 3.2 4.8 0.00 0.00 0.00 68 1010.7
20260506041527 11 81 4.8 6.4 0.00 0.00 0.00 70 1010.6
20260506040026 11 80 6.4 6.4 0.00 0.00 0.00 70 1010.5
20260506034526 12 78 6.4 6.4 0.00 0.00 0.00 69 1010.3
20260506033025 12 76 4.8 6.4 0.00 0.00 0.00 72 1010.2
20260506031525 12 78 4.8 6.4 0.00 0.00 0.00 71 1009.9
20260506030023 16 72 3.2 3.2 0.00 0.00 0.00 61 1009.8
20260506024531 19 105 1.6 3.2 0.00 0.00 0.00 51 1009.7
20260506023022 22 294 0.0 1.6 0.00 0.00 0.00 42 1009.6
20260506021521 22 291 0.0 1.6 0.00 0.00 0.00 38 1009.6
20260506020021 22 31 0.0 6.4 0.00 0.00 0.00 38 1009.5
20260506014520 22 292 1.6 4.8 0.00 0.00 0.00 36 1009.5
20260506013023 23 318 3.2 6.4 0.00 0.00 0.00 33 1009.4
20260506011522 23 284 4.8 8.0 0.00 0.00 0.00 33 1009.5
20260506010019 23 45 3.2 11.3 0.00 0.00 0.00 32 1009.5
20260506004518 23 49 3.2 9.7 0.00 0.00 0.00 31 1009.5
20260506003017 23 298 1.6 12.9 0.00 0.00 0.00 33 1009.4
20260506001516 23 306 4.8 14.5 0.00 0.00 0.00 32 1009.5
20260506000015 23 348 3.2 8.0 0.00 0.00 0.00 35 1009.5
20260505234532 23 40 6.4 20.9 0.00 0.00 0.00 30 1009.6
20260505233016 23 297 4.8 16.1 0.00 0.00 0.00 34 1009.6
20260505231514 23 319 4.8 17.7 0.00 0.00 0.00 36 1009.7
20260505230013 23 45 8.0 16.1 0.00 0.00 0.00 34 1009.9
20260505224509 23 319 6.4 12.9 0.00 0.00 0.00 39 1009.8
20260505223011 22 31 6.4 19.3 0.00 0.00 0.00 38 1009.9
20260505221508 23 43 3.2 11.3 0.00 0.00 0.00 40 1009.9
20260505220010 23 24 9.7 19.3 0.00 0.00 0.00 40 1010.0
20260505214508 22 277 6.4 19.3 0.00 0.00 0.00 43 1010.0
20260505213004 22 21 9.7 17.7 0.00 0.00 0.00 43 1010.1
20260505211503 22 313 9.7 19.3 0.00 0.00 0.00 39 1010.1
20260505210004 22 5 6.4 19.3 0.00 0.00 0.00 43 1010.2
20260505204502 22 283 6.4 19.3 0.00 0.00 0.00 40 1010.2
20260505203104 22 324 6.4 14.5 0.00 0.00 0.00 41 1010.2
20260505201608 22 350 8.0 17.7 0.00 0.00 0.00 42 1010.2
20260505200104 21 28 3.2 14.5 0.00 0.00 0.00 47 1010.2
20260505194603 21 34 3.2 12.9 0.00 0.00 0.00 47 1010.2
20260505193052 21 260 6.4 14.5 0.00 0.00 0.00 51 1010.2
20260505191553 20 261 1.6 12.9 0.00 0.00 0.00 48 1010.4
20260505190051 20 303 4.8 11.3 0.00 0.00 0.00 49 1010.4
20260505184546 20 291 8.0 14.5 0.00 0.00 0.00 56 1010.3
20260505183048 20 316 6.4 14.5 0.00 0.00 0.00 57 1010.3
20260505181541 19 257 4.8 12.9 0.00 0.00 0.00 55 1010.4
20260505180037 18 277 4.8 12.9 0.00 0.00 0.00 59 1010.3
20260505174534 18 308 8.0 12.9 0.00 0.00 0.00 61 1010.3
20260505173039 18 270 6.4 16.1 0.00 0.00 0.00 65 1010.2
20260505171533 17 272 6.4 14.5 0.00 0.00 0.00 64 1010.2
20260505170033 17 281 9.7 14.5 0.00 0.00 0.00 67 1010.1
20260505164527 17 286 8.0 16.1 0.00 0.00 0.00 66 1010.0
20260505163026 17 279 8.0 12.9 0.00 0.00 0.00 66 1009.9
20260505161527 17 254 8.0 12.9 0.00 0.00 0.00 64 1009.9
20260505153017 16 229 9.7 16.1 0.00 0.00 0.00 67 1009.7
20260505151511 15 261 8.0 11.3 0.00 0.00 0.00 68 1009.6
20260505140124 14 196 1.6 6.4 0.00 0.00 0.00 72 1009.0
20260505124558 11 137 3.2 11.3 0.00 0.00 0.00 80 1008.5
20260505123048 11 153 4.8 6.4 0.00 0.00 0.00 79 1008.2
20260505121547 11 134 3.2 6.4 0.00 0.00 0.00 78 1008.1
20260505120049 11 184 3.2 6.4 0.00 0.00 0.00 77 1008.1
20260505114544 12 174 3.2 8.0 0.00 0.00 0.00 75 1007.9
20260505113035 12 142 3.2 6.4 0.00 0.00 0.00 74 1007.8
20260505111534 13 198 1.6 12.9 0.00 0.00 0.00 72 1007.8
20260505101528 13 145 3.2 6.4 0.00 0.00 0.00 72 1007.6
20260505100028 13 188 3.2 6.4 0.00 0.00 0.00 72 1007.6
20260505094530 13 195 3.2 6.4 0.00 0.00 0.00 73 1007.5
20260505093024 13 156 3.2 6.4 0.00 0.00 0.00 73 1007.4